Time,TemperatureF,DewpointF,PressureIn,WindDirection,WindDirectionDegrees,WindSpeedMPH,WindSpeedGustMPH,Humidity,HourlyPrecipIn,Conditions,Clouds,dailyrainin,SoftwareType,DateUTC
2013-01-27 00:13:00,29.2,26.0,30.47,North,8,3.0,6.0,89,0.00,,,0.22,weatherlink.com 1.10,2013-01-27 05:13:00,
2013-01-27 00:28:00,29.0,26.0,30.47,NNE,12,3.0,6.0,89,0.00,,,0.00,weatherlink.com 1.10,2013-01-27 05:28:00,
2013-01-27 00:43:00,29.1,26.0,30.46,NNE,18,3.0,5.0,89,0.00,,,0.00,weatherlink.com 1.10,2013-01-27 05:43:00,
2013-01-27 00:58:00,29.1,26.0,30.46,NE,38,3.0,6.0,89,0.00,,,0.00,weatherlink.com 1.10,2013-01-27 05:58:00,
2013-01-27 01:13:00,28.9,26.0,30.46,NE,41,5.0,6.0,89,0.00,,,0.00,weatherlink.com 1.10,2013-01-27 06:13:00,
2013-01-27 01:28:00,28.8,26.0,30.46,North,2,4.0,6.0,89,0.00,,,0.00,weatherlink.com 1.10,2013-01-27 06:28:00,
2013-01-27 01:43:00,28.7,26.0,30.46,NE,36,3.0,5.0,90,0.00,,,0.00,weatherlink.com 1.10,2013-01-27 06:43:00,
2013-01-27 01:58:00,28.6,26.0,30.47,NNE,17,3.0,6.0,90,0.00,,,0.00,weatherlink.com 1.10,2013-01-27 06:58:00,
2013-01-27 02:13:00,28.6,26.0,30.47,NNE,28,3.0,5.0,90,0.00,,,0.00,weatherlink.com 1.10,2013-01-27 07:13:00,
2013-01-27 02:28:00,28.6,26.0,30.47,NNE,27,4.0,6.0,90,0.00,,,0.00,weatherlink.com 1.10,2013-01-27 07:28:00,
2013-01-27 02:43:00,28.5,26.0,30.46,NNE,27,3.0,5.0,90,0.00,,,0.00,weatherlink.com 1.10,2013-01-27 07:43:00,
2013-01-27 02:58:00,29.1,26.0,30.46,NNE,25,4.0,8.0,89,0.00,,,0.00,weatherlink.com 1.10,2013-01-27 07:58:00,
2013-01-27 03:13:00,29.0,26.0,30.46,North,7,4.0,7.0,88,0.00,,,0.00,weatherlink.com 1.10,2013-01-27 08:13:00,
2013-01-27 03:28:00,29.1,26.0,30.46,NNE,30,4.0,7.0,88,0.00,,,0.00,weatherlink.com 1.10,2013-01-27 08:28:00,
2013-01-27 03:43:00,29.4,26.0,30.46,NNE,32,2.0,6.0,88,0.00,,,0.00,weatherlink.com 1.10,2013-01-27 08:43:00,
2013-01-27 03:58:00,29.7,26.0,30.45,NNE,13,2.0,9.0,87,0.00,,,0.00,weatherlink.com 1.10,2013-01-27 08:58:00,
2013-01-27 04:13:00,29.2,26.0,30.45,NNE,31,3.0,6.0,88,0.00,,,0.00,weatherlink.com 1.10,2013-01-27 09:13:00,
2013-01-27 04:28:00,28.9,26.0,30.46,NE,42,3.0,4.0,88,0.00,,,0.00,weatherlink.com 1.10,2013-01-27 09:28:00,
2013-01-27 04:43:00,28.6,26.0,30.45,NE,40,4.0,6.0,89,0.00,,,0.00,weatherlink.com 1.10,2013-01-27 09:43:00,
2013-01-27 04:58:00,29.1,26.0,30.45,ENE,61,4.0,9.0,89,0.00,,,0.00,weatherlink.com 1.10,2013-01-27 09:58:00,
2013-01-27 05:13:00,28.8,26.0,30.45,NE,37,3.0,6.0,89,0.00,,,0.00,weatherlink.com 1.10,2013-01-27 10:13:00,
2013-01-27 05:28:00,28.8,26.0,30.45,NNE,23,2.0,5.0,90,0.00,,,0.00,weatherlink.com 1.10,2013-01-27 10:28:00,
2013-01-27 05:43:00,28.3,26.0,30.46,NNE,13,3.0,4.0,90,0.00,,,0.00,weatherlink.com 1.10,2013-01-27 10:43:00,
2013-01-27 05:58:00,28.2,26.0,30.46,North,1,2.0,3.0,90,0.00,,,0.00,weatherlink.com 1.10,2013-01-27 10:58:00,
2013-01-27 06:13:00,28.1,26.0,30.46,NNE,13,2.0,4.0,91,0.00,,,0.00,weatherlink.com 1.10,2013-01-27 11:13:00,
2013-01-27 06:28:00,27.9,26.0,30.47,North,349,4.0,4.0,91,0.00,,,0.00,weatherlink.com 1.10,2013-01-27 11:28:00,
2013-01-27 06:43:00,27.6,25.0,30.48,North,355,3.0,4.0,91,0.00,,,0.00,weatherlink.com 1.10,2013-01-27 11:43:00,
2013-01-27 06:58:00,27.8,26.0,30.48,NNE,19,2.0,4.0,91,0.00,,,0.00,weatherlink.com 1.10,2013-01-27 11:58:00,
2013-01-27 07:13:00,28.0,26.0,30.49,NE,34,2.0,4.0,91,0.00,,,0.00,weatherlink.com 1.10,2013-01-27 12:13:00,
2013-01-27 07:28:00,28.0,26.0,30.49,NE,40,2.0,4.0,90,0.00,,,0.00,weatherlink.com 1.10,2013-01-27 12:28:00,
2013-01-27 07:43:00,29.1,26.0,30.49,NE,38,3.0,6.0,89,0.00,,,0.00,weatherlink.com 1.10,2013-01-27 12:43:00,
2013-01-27 07:58:00,29.5,26.0,30.50,NE,44,2.0,6.0,88,0.00,,,0.00,weatherlink.com 1.10,2013-01-27 12:58:00,
2013-01-27 08:14:00,29.5,26.0,30.50,NE,50,3.0,6.0,87,0.00,,,0.00,weatherlink.com 1.10,2013-01-27 13:14:00,
2013-01-27 08:29:00,29.0,26.0,30.50,NE,49,2.0,4.0,88,0.00,,,0.00,weatherlink.com 1.10,2013-01-27 13:29:00,
2013-01-27 08:44:00,29.1,26.0,30.50,NNE,14,3.0,3.0,88,0.00,,,0.00,weatherlink.com 1.10,2013-01-27 13:44:00,
2013-01-27 08:59:00,29.9,27.0,30.50,NE,34,1.0,3.0,87,0.00,,,0.00,weatherlink.com 1.10,2013-01-27 13:59:00,
2013-01-27 09:14:00,31.5,28.0,30.50,ENE,77,1.0,3.0,85,0.00,,,0.00,weatherlink.com 1.10,2013-01-27 14:14:00,
2013-01-27 09:29:00,31.9,27.0,30.51,NE,45,1.0,2.0,83,0.00,,,0.00,weatherlink.com 1.10,2013-01-27 14:29:00,
2013-01-27 09:44:00,32.5,28.0,30.52,NE,37,1.0,4.0,82,0.00,,,0.00,weatherlink.com 1.10,2013-01-27 14:44:00,
2013-01-27 09:59:00,33.3,28.0,30.53,ENE,70,1.0,3.0,81,0.00,,,0.00,weatherlink.com 1.10,2013-01-27 14:59:00,
2013-01-27 10:14:00,34.1,29.0,30.54,NE,40,0.0,3.0,80,0.00,,,0.00,weatherlink.com 1.10,2013-01-27 15:14:00,
2013-01-27 10:29:00,34.5,29.0,30.55,NNE,24,1.0,2.0,80,0.00,,,0.00,weatherlink.com 1.10,2013-01-27 15:29:00,
2013-01-27 10:44:00,37.8,31.0,30.54,ESE,107,2.0,6.0,77,0.00,,,0.00,weatherlink.com 1.10,2013-01-27 15:44:00,
2013-01-27 10:59:00,39.7,31.0,30.53,ESE,117,2.0,6.0,71,0.00,,,0.00,weatherlink.com 1.10,2013-01-27 15:59:00,
2013-01-27 11:14:00,38.5,31.0,30.52,NE,44,1.0,9.0,73,0.00,,,0.00,weatherlink.com 1.10,2013-01-27 16:14:00,
2013-01-27 11:29:00,38.8,31.0,30.51,East,90,5.0,8.0,73,0.00,,,0.00,weatherlink.com 1.10,2013-01-27 16:29:00,
2013-01-27 11:44:00,38.7,32.0,30.51,ENE,75,2.0,8.0,76,0.00,,,0.00,weatherlink.com 1.10,2013-01-27 16:44:00,
2013-01-27 11:59:00,41.4,32.0,30.51,ENE,65,0.0,3.0,70,0.00,,,0.00,weatherlink.com 1.10,2013-01-27 16:59:00,
2013-01-27 12:14:00,43.7,32.0,30.51,North,355,0.0,4.0,63,0.00,,,0.00,weatherlink.com 1.10,2013-01-27 17:14:00,
2013-01-27 12:29:00,43.3,32.0,30.50,ESE,104,1.0,5.0,64,0.00,,,0.00,weatherlink.com 1.10,2013-01-27 17:29:00,
2013-01-27 12:44:00,45.9,33.0,30.49,ENE,63,3.0,8.0,62,0.00,,,0.00,weatherlink.com 1.10,2013-01-27 17:44:00,
2013-01-27 12:59:00,44.8,33.0,30.49,East,87,0.0,4.0,63,0.00,,,0.00,weatherlink.com 1.10,2013-01-27 17:59:00,
2013-01-27 13:14:00,46.0,33.0,30.49,ENE,61,0.0,4.0,62,0.00,,,0.00,weatherlink.com 1.10,2013-01-27 18:14:00,
2013-01-27 13:29:00,45.8,33.0,30.48,East,94,5.0,7.0,61,0.00,,,0.00,weatherlink.com 1.10,2013-01-27 18:29:00,
2013-01-27 13:44:00,45.0,32.0,30.48,South,175,1.0,6.0,60,0.00,,,0.00,weatherlink.com 1.10,2013-01-27 18:44:00,
2013-01-27 13:59:00,44.8,32.0,30.47,ESE,122,5.0,6.0,62,0.00,,,0.00,weatherlink.com 1.10,2013-01-27 18:59:00,
2013-01-27 14:14:00,44.0,32.0,30.47,East,84,2.0,4.0,63,0.00,,,0.00,weatherlink.com 1.10,2013-01-27 19:14:00,
2013-01-27 14:29:00,44.0,32.0,30.47,East,82,2.0,5.0,64,0.00,,,0.00,weatherlink.com 1.10,2013-01-27 19:29:00,
2013-01-27 14:44:00,44.2,33.0,30.47,East,93,2.0,5.0,64,0.00,,,0.00,weatherlink.com 1.10,2013-01-27 19:44:00,
2013-01-27 14:59:00,44.3,33.0,30.46,ESE,112,3.0,5.0,64,0.00,,,0.00,weatherlink.com 1.10,2013-01-27 19:59:00,
2013-01-27 15:14:00,44.5,32.0,30.45,East,96,4.0,4.0,63,0.00,,,0.00,weatherlink.com 1.10,2013-01-27 20:14:00,
2013-01-27 15:29:00,44.9,32.0,30.45,ENE,71,0.0,3.0,61,0.00,,,0.00,weatherlink.com 1.10,2013-01-27 20:29:00,
2013-01-27 15:44:00,45.7,32.0,30.46,ENE,74,0.0,2.0,59,0.00,,,0.00,weatherlink.com 1.10,2013-01-27 20:44:00,
2013-01-27 15:59:00,45.7,32.0,30.46,East,83,0.0,2.0,60,0.00,,,0.00,weatherlink.com 1.10,2013-01-27 20:59:00,
2013-01-27 16:14:00,45.6,32.0,30.47,ENE,75,0.0,2.0,59,0.00,,,0.00,weatherlink.com 1.10,2013-01-27 21:14:00,
2013-01-27 16:29:00,45.0,32.0,30.46,ESE,117,2.0,3.0,60,0.00,,,0.00,weatherlink.com 1.10,2013-01-27 21:29:00,
2013-01-27 16:44:00,44.8,31.0,30.45,East,88,2.0,4.0,60,0.00,,,0.00,weatherlink.com 1.10,2013-01-27 21:44:00,
2013-01-27 16:59:00,44.9,32.0,30.46,East,94,0.0,1.0,60,0.00,,,0.00,weatherlink.com 1.10,2013-01-27 21:59:00,
2013-01-27 17:14:00,44.5,31.0,30.46,East,96,1.0,5.0,60,0.00,,,0.00,weatherlink.com 1.10,2013-01-27 22:14:00,
2013-01-27 17:29:00,44.5,31.0,30.47,ESE,120,2.0,3.0,60,0.00,,,0.00,weatherlink.com 1.10,2013-01-27 22:29:00,
2013-01-27 17:44:00,44.1,31.0,30.46,SE,143,1.0,5.0,61,0.00,,,0.00,weatherlink.com 1.10,2013-01-27 22:44:00,
2013-01-27 17:59:00,44.3,31.0,30.47,SE,129,0.0,1.0,61,0.00,,,0.00,weatherlink.com 1.10,2013-01-27 22:59:00,
2013-01-27 18:14:00,43.9,31.0,30.47,SE,129,0.0,4.0,62,0.00,,,0.00,weatherlink.com 1.10,2013-01-27 23:14:00,
2013-01-27 18:29:00,44.3,32.0,30.46,East,92,1.0,3.0,62,0.00,,,0.00,weatherlink.com 1.10,2013-01-27 23:29:00,
2013-01-27 18:44:00,44.5,32.0,30.46,East,89,2.0,4.0,62,0.00,,,0.00,weatherlink.com 1.10,2013-01-27 23:44:00,
2013-01-27 18:59:00,44.2,33.0,30.47,East,91,3.0,4.0,64,0.00,,,0.00,weatherlink.com 1.10,2013-01-27 23:59:00,
2013-01-27 19:14:00,43.9,33.0,30.47,ENE,70,1.0,4.0,65,0.00,,,0.00,weatherlink.com 1.10,2013-01-28 00:14:00,
2013-01-27 19:29:00,44.1,33.0,30.47,ESE,120,2.0,4.0,64,0.00,,,0.00,weatherlink.com 1.10,2013-01-28 00:29:00,
2013-01-27 19:44:00,44.0,33.0,30.47,ESE,110,1.0,4.0,66,0.00,,,0.00,weatherlink.com 1.10,2013-01-28 00:44:00,
2013-01-27 19:59:00,43.6,33.0,30.46,ESE,114,4.0,5.0,66,0.00,,,0.00,weatherlink.com 1.10,2013-01-28 00:59:00,
2013-01-27 20:14:00,43.8,33.0,30.45,ESE,104,4.0,5.0,66,0.00,,,0.00,weatherlink.com 1.10,2013-01-28 01:14:00,
2013-01-27 20:30:00,43.4,34.0,30.45,ESE,115,3.0,7.0,69,0.00,,,0.00,weatherlink.com 1.10,2013-01-28 01:30:00,
2013-01-27 20:45:00,43.1,34.0,30.45,ESE,109,5.0,7.0,69,0.00,,,0.00,weatherlink.com 1.10,2013-01-28 01:45:00,
2013-01-27 21:00:00,43.1,33.0,30.45,ESE,122,5.0,8.0,68,0.00,,,0.00,weatherlink.com 1.10,2013-01-28 02:00:00,
2013-01-27 21:15:00,43.1,34.0,30.44,ESE,117,6.0,9.0,69,0.00,,,0.00,weatherlink.com 1.10,2013-01-28 02:15:00,
2013-01-27 21:30:00,42.9,34.0,30.44,ESE,106,4.0,7.0,71,0.00,,,0.00,weatherlink.com 1.10,2013-01-28 02:30:00,
2013-01-27 21:45:00,42.9,34.0,30.44,East,91,6.0,8.0,71,0.00,,,0.00,weatherlink.com 1.10,2013-01-28 02:45:00,
2013-01-27 22:00:00,42.9,34.0,30.43,East,81,3.0,6.0,71,0.00,,,0.00,weatherlink.com 1.10,2013-01-28 03:00:00,
2013-01-27 22:15:00,42.9,34.0,30.42,ENE,78,2.0,5.0,72,0.00,,,0.00,weatherlink.com 1.10,2013-01-28 03:15:00,
2013-01-27 22:30:00,42.9,34.0,30.42,East,86,4.0,6.0,72,0.00,,,0.00,weatherlink.com 1.10,2013-01-28 03:30:00,
2013-01-27 22:45:00,42.6,35.0,30.42,East,90,3.0,6.0,74,0.00,,,0.00,weatherlink.com 1.10,2013-01-28 03:45:00,
2013-01-27 23:00:00,42.5,35.0,30.42,ESE,118,2.0,5.0,75,0.00,,,0.00,weatherlink.com 1.10,2013-01-28 04:00:00,
2013-01-27 23:15:00,42.7,35.0,30.42,East,93,4.0,5.0,75,0.00,,,0.00,weatherlink.com 1.10,2013-01-28 04:15:00,
2013-01-27 23:30:00,42.8,35.0,30.43,ESE,103,5.0,6.0,74,0.00,,,0.00,weatherlink.com 1.10,2013-01-28 04:30:00,
2013-01-27 23:45:00,42.3,36.0,30.42,ESE,120,4.0,6.0,78,0.00,,,0.00,weatherlink.com 1.10,2013-01-28 04:45:00,